Simultaneous Nadir Overpasses (SNOs) Predictions

Prediction of SNOs between GOES-15 and NOAA-20 Satellite Orbit:

Table of predicted SNOs for the next 14.0 days since TLE Epoch: 2/18/2023
Index Date Time (GOES-15) GOES-15 Lat,Lon NOAA-20 Lat,Lon Distance(km) Time Diff (sec)
1 02/18/2023 22:04:48 -0.09,-128.19 -0.41,-129.52 152.61 80
2 02/19/2023 21:43:25 -0.09,-128.17 0.60,-124.99 361.74 80
3 02/21/2023 10:05:14 0.09,-128.15 0.59,-130.26 241.57 80
4 02/22/2023 09:49:12 0.09,-128.14 -0.48,-125.75 273.11 80
5 02/23/2023 22:11:09 -0.09,-128.12 -0.77,-131.04 333.83 80
6 02/24/2023 21:49:46 -0.09,-128.10 0.25,-126.52 180.39 80
7 02/26/2023 10:11:35 0.10,-128.07 0.93,-131.79 423.88 80
8 02/27/2023 09:55:31 0.10,-128.05 -0.09,-127.26 90.32 80
9 03/01/2023 21:58:45 -0.11,-128.01 -0.12,-128.04 3.23 80
